Location: Ch�tillon
(48.8024°N, 2.2935°E)
Time: 08:12:47
(UTC+00:00)

CAS-4A - Visible Passes

Search period start: 04 July 2022 00:00
Search period end: 14 July 2022 00:00
Orbit: 523 x 536 km, 43.0° (Epoch: 03 July)

Date Brightness Start Highest point End Pass type
(mag) Time Alt. Az. Time Alt. Az. Time Alt. Az.
04 Jul ? 01:24:13 26° SSE 01:24:25 26° SSE 01:27:48 10° ESE visible
04 Jul ? 03:00:10 10° WSW 03:03:53 36° S 03:07:38 10° ESE visible
05 Jul ? 01:11:57 28° SSE 01:11:57 28° SSE 01:15:17 10° ESE visible
05 Jul ? 02:47:34 10° WSW 02:51:17 36° S 02:55:01 10° ESE visible
06 Jul ? 00:59:41 29° SSE 00:59:41 29° SSE 01:02:44 10° ESE visible
06 Jul ? 02:35:00 10° WSW 02:38:42 35° S 02:42:24 10° ESE visible
07 Jul ? 00:47:31 28° SE 00:47:31 28° SE 00:50:11 10° ESE visible
07 Jul ? 02:22:43 12° WSW 02:26:05 34° S 02:29:45 10° ESE visible
08 Jul ? 00:35:29 25° SE 00:35:29 25° SE 00:37:37 10° ESE visible
08 Jul ? 02:10:41 15° WSW 02:13:28 32° S 02:17:06 10° SE visible
09 Jul ? 00:23:42 19° ESE 00:23:42 19° ESE 00:25:02 10° ESE visible
09 Jul ? 01:58:56 20° WSW 02:00:51 30° SSW 02:04:25 10° SE visible
10 Jul ? 01:47:45 28° SSW 01:48:14 28° SSW 01:51:43 10° SE visible
10 Jul ? 22:13:24 10° SW 22:13:28 10° SW 22:13:28 10° SW visible
11 Jul ? 01:37:36 18° SSE 01:37:36 18° SSE 01:38:59 10° SE visible
11 Jul ? 22:00:38 10° SW 22:03:34 26° S 22:03:34 26° S visible
12 Jul ? 21:47:54 10° SW 21:51:23 29° SSE 21:52:33 24° SE visible
12 Jul ? 23:27:11 10° WSW 23:27:47 14° WSW 23:27:47 14° WSW visible
13 Jul ? 21:35:11 10° SW 21:38:44 31° SSE 21:40:52 19° ESE visible
13 Jul ? 23:14:34 10° WSW 23:16:04 20° WSW 23:16:04 20° WSW visible
